Weather History for KOVS - March, 2013

Change the Weather History Date:

Sunday, March 3, 2013

  Actual Average (KPDC) Record (KPDC)
Temperature  
Mean Temperature 18 °F -  
Max Temperature 36 °F 41 °F 70 °F (1983)
Min Temperature 1 °F 21 °F -14 °F (2014)
Degree Days  
Heating Degree Days 46    
Moisture  
Dew Point 7 °F    
Average Humidity 61    
Maximum Humidity 96    
Minimum Humidity 30    
Precipitation  
Precipitation 0.00 in - - ()
Sea Level Pressure  
Sea Level Pressure 30.16 in    
Wind  
Wind Speed 1 mph (NE)    
Max Wind Speed 6 mph    
Max Gust Speed -    
Visibility 10 miles    
Events      
Averages and records for this station are not official NWS values.
T = Trace of Precipitation, MM = Missing Value Source: NWS Daily Summary

Daily Weather History Graph

Daily Weather History Graph

Search for Another Location

Airport or City:

Trip Planner

Search our weather history database for the weather conditions in past years. The results will help you decide how hot, cold, wet, or windy it might be!

Date:

Astronomy

Mar. 03, 2013 Rise Set
Actual Time 6:35 AM CST 5:54 PM CST
Civil Twilight 6:06 AM CST 6:23 PM CST
Nautical Twilight 5:33 AM CST 6:56 PM CST
Astronomical Twilight 5:00 AM CST 7:29 PM CST
Moon No Moon Rise 9:39 AM CST (3/3)
Length of Visible Light 12h 16m
Length of Day
11h 19m
Waning Gibbous, 63% of the Moon is Illuminated
Mar 3
Waning Gibbous
Mar 4
Last Quarter
Mar 11
New
Mar 19
First Quarter
Mar 27
Full

Hourly Weather History & Observations

Time (CST) Temp. Windchill Dew Point Humidity Pressure Visibility Wind Dir Wind Speed Gust Speed Precip Events Conditions
12:53 AM 10.9 °F - 5.0 °F 77% 30.22 in 5.0 mi Calm Calm - N/A   Haze
1:53 AM 9.0 °F - 3.9 °F 80% 30.21 in 10.0 mi Calm Calm - N/A   Clear
2:53 AM 9.0 °F - 3.9 °F 80% 30.19 in 10.0 mi Calm Calm - N/A   Clear
3:53 AM 8.1 °F - 3.0 °F 80% 30.20 in 10.0 mi Calm Calm - N/A   Clear
4:53 AM 5.0 °F - 1.0 °F 84% 30.20 in 10.0 mi Calm Calm - N/A   Clear
5:53 AM 3.0 °F - -0.9 °F 84% 30.21 in 10.0 mi Calm Calm - N/A   Clear
6:53 AM 1.9 °F - -2.9 °F 80% 30.21 in 10.0 mi Calm Calm - N/A   Clear
7:53 AM 7.0 °F - 6.1 °F 96% 30.22 in 10.0 mi Calm Calm - N/A   Clear
8:53 AM 12.9 °F - 8.1 °F 81% 30.21 in 10.0 mi Calm Calm - N/A   Clear
9:53 AM 21.9 °F - 10.0 °F 60% 30.20 in 10.0 mi Calm Calm - N/A   Clear
10:53 AM 28.0 °F - 10.9 °F 49% 30.18 in 10.0 mi Calm Calm - N/A   Clear
11:53 AM 32.0 °F 28.7 °F 8.1 °F 37% 30.16 in 10.0 mi NNE 3.5 mph - N/A   Clear
12:53 PM 34.0 °F 29.8 °F 9.0 °F 35% 30.13 in 10.0 mi NNE 4.6 mph - N/A   Clear
1:53 PM 35.1 °F 32.2 °F 8.1 °F 33% 30.11 in 10.0 mi NNE 3.5 mph - N/A   Clear
2:53 PM 36.0 °F - 7.0 °F 30% 30.10 in 10.0 mi Calm Calm - N/A   Clear
4:53 PM 33.1 °F 27.7 °F 9.0 °F 37% 30.09 in 10.0 mi South 5.8 mph - N/A   Clear
5:53 PM 30.0 °F - 7.0 °F 38% 30.10 in 10.0 mi Calm Calm - N/A   Clear
6:53 PM 26.1 °F - 8.1 °F 47% 30.11 in 10.0 mi Calm Calm - N/A   Clear
7:53 PM 25.0 °F 20.7 °F 9.0 °F 51% 30.11 in 10.0 mi NNE 3.5 mph - N/A   Clear
8:53 PM 21.9 °F - 9.0 °F 58% 30.12 in 9.0 mi Calm Calm - N/A   Clear
9:53 PM 19.9 °F - 10.0 °F 65% 30.12 in 10.0 mi Calm Calm - N/A   Clear
10:53 PM 21.9 °F - 10.0 °F 60% 30.10 in 10.0 mi Calm Calm - N/A   Clear
11:53 PM 23.0 °F 17.0 °F 10.0 °F 58% 30.11 in 10.0 mi ESE 4.6 mph - N/A   Clear